When you browse on this site, cookies collect data to enhance your experience and personalize the content and advertising you see.
Visit our Privacy Policy to learn more. By continuing to use the site, you agree to this use of cookies and data.
  • In Italy
  • List of Countries
  • For 7 days
  • Water Temperature
  • Satellite Maps
  • Weather Map
  • Weather Widgets
  • user-avatar
    Login

    Hourly Weather Rawson

    Today, 12 December, Wednesday

    Time Temperature Precipitation Wind Pressure Humidity
    00:00 +21°C° 0 mm 7 mps 757 mmHg 24%
    01:00 +21°C° 0 mm 8 mps 757 mmHg 25%
    02:00 +18°C° 0 mm 9 mps 758 mmHg 27%
    03:00 +17°C° 0 mm 9 mps 758 mmHg 29%
    04:00 +17°C° 0 mm 9 mps 758 mmHg 30%
    05:00 +16°C° 0 mm 8 mps 759 mmHg 32%
    06:00 +17°C° 0 mm 8 mps 759 mmHg 30%
    07:00 +18°C° 0 mm 7 mps 759 mmHg 29%
    08:00 +20°C° 0 mm 7 mps 759 mmHg 27%
    09:00 +21°C° 0 mm 5 mps 759 mmHg 24%
    10:00 +22°C° 0 mm 4 mps 759 mmHg 21%
    11:00 +24°C° 0 mm 3 mps 759 mmHg 18%
    12:00 +25°C° 0 mm 4 mps 759 mmHg 17%
    13:00 +26°C° 0 mm 4 mps 758 mmHg 15%
    14:00 +26°C° 0 mm 4 mps 758 mmHg 14%
    15:00 +27°C° 0 mm 4 mps 757 mmHg 14%
    16:00 +27°C° 0 mm 4 mps 757 mmHg 15%
    17:00 +27°C° 0 mm 4 mps 756 mmHg 16%
    18:00 +26°C° 0 mm 5 mps 756 mmHg 17%
    19:00 +26°C° 0 mm 7 mps 756 mmHg 19%
    20:00 +24°C° 0 mm 8 mps 755 mmHg 21%
    21:00 +23°C° 0 mm 8 mps 755 mmHg 23%
    22:00 +23°C° 0 mm 8 mps 755 mmHg 25%
    23:00 +22°C° 0 mm 8 mps 755 mmHg 28%

    Tomorrow, 13 December, Thursday

    Time Temperature Precipitation Wind Pressure Humidity
    00:00 +21°C° 0 mm 8 mps 755 mmHg 32%
    01:00 +21°C° 0 mm 8 mps 755 mmHg 36%
    02:00 +20°C° 0 mm 8 mps 754 mmHg 41%
    03:00 +20°C° 0 mm 8 mps 754 mmHg 43%
    04:00 +20°C° 0 mm 8 mps 753 mmHg 45%
    05:00 +20°C° 0 mm 8 mps 753 mmHg 46%
    06:00 +22°C° 0 mm 9 mps 753 mmHg 39%
    07:00 +24°C° 0 mm 9 mps 753 mmHg 31%
    08:00 +28°C° 0 mm 9 mps 753 mmHg 23%
    09:00 +29°C° 0 mm 9 mps 752 mmHg 21%
    10:00 +31°C° 0 mm 9 mps 752 mmHg 18%
    11:00 +33°C° 0 mm 9 mps 752 mmHg 16%
    12:00 +32°C° 0 mm 8 mps 751 mmHg 18%
    13:00 +32°C° 0 mm 7 mps 751 mmHg 19%
    14:00 +30°C° 0 mm 7 mps 751 mmHg 21%
    15:00 +29°C° 0.3 mm 7 mps 750 mmHg 28%
    16:00 +28°C° 0.3 mm 6 mps 750 mmHg 34%
    17:00 +27°C° 0.3 mm 6 mps 750 mmHg 41%
    18:00 +24°C° 0.4 mm 6 mps 750 mmHg 47%
    19:00 +23°C° 0.4 mm 6 mps 750 mmHg 53%
    20:00 +22°C° 0.4 mm 6 mps 750 mmHg 58%
    21:00 +21°C° 0.3 mm 6 mps 750 mmHg 62%
    22:00 +21°C° 0.3 mm 5 mps 751 mmHg 65%
    23:00 +20°C° 0.3 mm 5 mps 751 mmHg 68%

    Day after tomorrow, 14 December, Friday

    Time Temperature Precipitation Wind Pressure Humidity
    00:00 +20°C° 1.8 mm 5 mps 750 mmHg 69%
    01:00 +19°C° 1.8 mm 6 mps 750 mmHg 71%
    02:00 +19°C° 1.8 mm 6 mps 750 mmHg 72%
    03:00 +17°C° 1.1 mm 7 mps 750 mmHg 71%
    04:00 +17°C° 1.1 mm 7 mps 751 mmHg 70%
    05:00 +17°C° 1.1 mm 8 mps 751 mmHg 69%
    06:00 +17°C° 1 mm 9 mps 751 mmHg 64%
    07:00 +17°C° 1 mm 10 mps 752 mmHg 59%
    08:00 +17°C° 1 mm 10 mps 752 mmHg 54%
    09:00 +18°C° 0.2 mm 11 mps 753 mmHg 50%
    10:00 +19°C° 0.2 mm 11 mps 753 mmHg 47%
    11:00 +22°C° 0.2 mm 11 mps 753 mmHg 43%
    12:00 +23°C° 0 mm 11 mps 754 mmHg 40%
    13:00 +24°C° 0 mm 11 mps 754 mmHg 36%
    14:00 +26°C° 0 mm 12 mps 754 mmHg 33%
    15:00 +24°C° 0 mm 11 mps 754 mmHg 33%
    16:00 +24°C° 0 mm 10 mps 755 mmHg 34%
    17:00 +24°C° 0 mm 9 mps 755 mmHg 34%
    18:00 +22°C° 0 mm 8 mps 755 mmHg 40%
    19:00 +21°C° 0 mm 7 mps 756 mmHg 46%
    20:00 +19°C° 0 mm 6 mps 756 mmHg 52%
    21:00 +19°C° 0 mm 4 mps 756 mmHg 56%
    22:00 +18°C° 0 mm 3 mps 757 mmHg 60%
    23:00 +18°C° 0 mm 1 mps 757 mmHg 64%

    15 December, Saturday

    Time Temperature Precipitation Wind Pressure Humidity
    00:00 +17°C° 0 mm 2 mps 757 mmHg 62%
    01:00 +17°C° 0 mm 3 mps 757 mmHg 61%
    02:00 +17°C° 0 mm 4 mps 757 mmHg 60%
    03:00 +16°C° 0 mm 5 mps 757 mmHg 53%
    04:00 +16°C° 0 mm 6 mps 757 mmHg 47%
    05:00 +16°C° 0 mm 6 mps 757 mmHg 41%
    06:00 +17°C° 0 mm 6 mps 757 mmHg 38%
    07:00 +19°C° 0 mm 6 mps 757 mmHg 36%
    08:00 +20°C° 0 mm 6 mps 757 mmHg 34%
    09:00 +22°C° 0 mm 6 mps 757 mmHg 31%
    10:00 +23°C° 0 mm 5 mps 757 mmHg 28%
    11:00 +25°C° 0 mm 5 mps 757 mmHg 24%
    12:00 +27°C° 0 mm 5 mps 756 mmHg 23%
    13:00 +28°C° 0 mm 6 mps 755 mmHg 21%
    14:00 +29°C° 0 mm 6 mps 754 mmHg 20%
    15:00 +30°C° 0 mm 6 mps 753 mmHg 19%
    16:00 +30°C° 0 mm 6 mps 753 mmHg 19%
    17:00 +32°C° 0 mm 6 mps 752 mmHg 18%
    18:00 +30°C° 0 mm 6 mps 752 mmHg 21%
    19:00 +29°C° 0 mm 7 mps 751 mmHg 25%
    20:00 +28°C° 0 mm 7 mps 751 mmHg 28%
    21:00 +27°C° 0 mm 6 mps 751 mmHg 31%
    22:00 +26°C° 0 mm 6 mps 751 mmHg 34%
    23:00 +25°C° 0 mm 5 mps 751 mmHg 37%

    16 December, Sunday

    Time Temperature Precipitation Wind Pressure Humidity
    00:00 +25°C° 0 mm 5 mps 750 mmHg 37%
    01:00 +25°C° 0 mm 5 mps 750 mmHg 37%
    02:00 +25°C° 0 mm 5 mps 750 mmHg 36%
    03:00 +25°C° 0 mm 5 mps 750 mmHg 38%
    04:00 +23°C° 0 mm 6 mps 750 mmHg 39%
    05:00 +23°C° 0 mm 7 mps 750 mmHg 40%
    06:00 +23°C° 0 mm 9 mps 750 mmHg 39%
    07:00 +23°C° 0 mm 11 mps 751 mmHg 37%
    08:00 +23°C° 0 mm 13 mps 752 mmHg 36%
    09:00 +23°C° 0 mm 13 mps 752 mmHg 33%
    10:00 +23°C° 0 mm 12 mps 753 mmHg 29%
    11:00 +22°C° 0 mm 12 mps 754 mmHg 26%
    12:00 +22°C° 0 mm 11 mps 754 mmHg 25%
    13:00 +23°C° 0 mm 9 mps 754 mmHg 24%
    14:00 +23°C° 0 mm 8 mps 755 mmHg 23%
    15:00 +22°C° 0 mm 8 mps 755 mmHg 25%
    16:00 +21°C° 0 mm 8 mps 755 mmHg 28%
    17:00 +21°C° 0 mm 7 mps 755 mmHg 30%
    18:00 +19°C° 0 mm 6 mps 756 mmHg 35%
    19:00 +17°C° 0 mm 5 mps 756 mmHg 40%
    20:00 +17°C° 0 mm 4 mps 757 mmHg 44%
    21:00 +17°C° 0 mm 4 mps 758 mmHg 45%
    22:00 +16°C° 0 mm 3 mps 759 mmHg 46%
    23:00 +16°C° 0 mm 3 mps 760 mmHg 47%

    17 December, Monday

    Time Temperature Precipitation Wind Pressure Humidity
    00:00 +16°C° 0 mm 3 mps 760 mmHg 48%
    01:00 +16°C° 0 mm 3 mps 760 mmHg 50%
    02:00 +14°C° 0 mm 3 mps 761 mmHg 51%
    03:00 +14°C° 0 mm 3 mps 761 mmHg 53%
    04:00 +14°C° 0 mm 3 mps 762 mmHg 55%
    05:00 +14°C° 0 mm 2 mps 762 mmHg 57%
    06:00 +15°C° 0 mm 2 mps 763 mmHg 53%
    07:00 +16°C° 0 mm 1 mps 763 mmHg 49%
    08:00 +18°C° 0 mm 1 mps 763 mmHg 45%
    09:00 +18°C° 0 mm 2 mps 764 mmHg 38%
    10:00 +20°C° 0 mm 3 mps 764 mmHg 31%
    11:00 +21°C° 0 mm 3 mps 764 mmHg 24%
    12:00 +22°C° 0 mm 4 mps 763 mmHg 23%
    13:00 +22°C° 0 mm 5 mps 763 mmHg 22%
    14:00 +23°C° 0 mm 6 mps 763 mmHg 21%
    15:00 +22°C° 0 mm 6 mps 763 mmHg 27%
    16:00 +21°C° 0 mm 7 mps 763 mmHg 33%
    17:00 +20°C° 0 mm 7 mps 762 mmHg 39%
    18:00 +20°C° 0 mm 7 mps 762 mmHg 43%
    19:00 +18°C° 0 mm 8 mps 762 mmHg 47%
    20:00 +17°C° 0 mm 8 mps 762 mmHg 50%
    21:00 +17°C° 0 mm 8 mps 761 mmHg 49%
    22:00 +18°C° 0 mm 8 mps 761 mmHg 47%
    23:00 +18°C° 0 mm 8 mps 761 mmHg 45%
    Show more